Time,TemperatureF,DewpointF,PressureIn,WindDirection,WindDirectionDegrees,WindSpeedMPH,WindSpeedGustMPH,Humidity,HourlyPrecipIn,Conditions,Clouds,dailyrainin,SoftwareType,DateUTC
2013-07-12 00:01:00,73.3,69.2,29.94,NNW,329,0.0,0.0,87,0.00,,BKN080,0.00,VWS V14.01,2013-07-12 04:01:00,
2013-07-12 00:02:00,73.3,69.2,29.94,NNW,329,0.0,0.0,87,0.00,,BKN080,0.00,VWS V14.01,2013-07-12 04:02:00,
2013-07-12 00:07:00,73.1,69.0,29.94,NNW,329,0.0,0.0,87,0.00,,BKN080,0.00,VWS V14.01,2013-07-12 04:07:00,
2013-07-12 00:12:00,73.0,69.2,29.94,NNW,329,0.0,0.0,88,0.00,,BKN080,0.00,VWS V14.01,2013-07-12 04:12:00,
2013-07-12 00:17:00,72.8,69.4,29.94,NNW,329,0.0,0.0,89,0.00,,BKN080,0.00,VWS V14.01,2013-07-12 04:17:00,
2013-07-12 00:22:00,72.6,68.8,29.94,NNW,329,0.0,0.0,88,0.00,,BKN080,0.00,VWS V14.01,2013-07-12 04:22:00,
2013-07-12 00:27:00,72.4,68.7,29.94,NNW,329,0.0,0.0,88,0.00,,BKN080,0.00,VWS V14.01,2013-07-12 04:27:00,
2013-07-12 00:32:00,72.3,68.6,29.94,NNW,329,0.0,0.0,88,0.00,,BKN080,0.00,VWS V14.01,2013-07-12 04:32:00,
2013-07-12 00:37:00,72.1,68.7,29.94,NNW,329,0.0,0.0,89,0.00,,BKN080,0.00,VWS V14.01,2013-07-12 04:37:00,
2013-07-12 00:42:00,72.0,68.6,29.94,NNW,329,0.0,0.0,89,0.00,,BKN080,0.00,VWS V14.01,2013-07-12 04:42:00,
2013-07-12 00:47:00,71.9,68.5,29.94,NNW,329,0.0,0.0,89,0.00,,BKN080,0.00,VWS V14.01,2013-07-12 04:47:00,
2013-07-12 00:52:00,71.7,68.0,29.94,NNW,329,0.0,0.0,88,0.00,,BKN080,0.00,VWS V14.01,2013-07-12 04:52:00,
2013-07-12 00:57:00,71.6,67.9,29.94,NNW,329,0.0,0.0,88,0.00,,BKN080,0.00,VWS V14.01,2013-07-12 04:57:00,
2013-07-12 01:02:00,71.5,67.8,29.94,NNW,329,0.0,0.0,88,0.00,,BKN080,0.00,VWS V14.01,2013-07-12 05:02:00,
2013-07-12 01:07:00,71.4,68.0,29.94,NNW,329,0.0,0.0,89,0.00,,BKN080,0.00,VWS V14.01,2013-07-12 05:07:00,
2013-07-12 01:12:00,71.3,67.9,29.94,NNW,329,0.0,0.0,89,0.00,,BKN080,0.00,VWS V14.01,2013-07-12 05:12:00,
2013-07-12 01:17:00,71.1,67.7,29.94,NNW,329,0.0,0.0,89,0.00,,BKN080,0.00,VWS V14.01,2013-07-12 05:17:00,
2013-07-12 01:22:00,71.1,67.7,29.94,NNW,329,0.0,0.0,89,0.00,,BKN080,0.00,VWS V14.01,2013-07-12 05:22:00,
2013-07-12 01:27:00,71.0,67.6,29.94,NNW,329,0.0,0.0,89,0.00,,BKN080,0.00,VWS V14.01,2013-07-12 05:27:00,
2013-07-12 01:32:00,70.8,67.4,29.94,NNW,329,0.0,0.0,89,0.00,,BKN080,0.00,VWS V14.01,2013-07-12 05:32:00,
2013-07-12 01:37:00,70.6,67.2,29.94,NNW,329,0.0,0.0,89,0.00,,BKN080,0.00,VWS V14.01,2013-07-12 05:37:00,
2013-07-12 01:42:00,70.5,67.1,29.94,NNW,329,0.0,0.0,89,0.00,,BKN080,0.00,VWS V14.01,2013-07-12 05:42:00,
2013-07-12 01:47:00,70.3,66.9,29.94,NNW,329,0.0,0.0,89,0.00,,BKN080,0.00,VWS V14.01,2013-07-12 05:47:00,
2013-07-12 01:52:00,70.1,66.7,29.94,NNW,329,0.0,0.0,89,0.00,,BKN080,0.00,VWS V14.01,2013-07-12 05:52:00,
2013-07-12 01:57:00,69.9,66.5,29.94,NNW,329,0.0,0.0,89,0.00,,BKN080,0.00,VWS V14.01,2013-07-12 05:57:00,
2013-07-12 02:03:00,69.7,66.3,29.94,NNW,329,0.0,0.0,89,0.00,,CLR,0.00,VWS V14.01,2013-07-12 06:03:00,
2013-07-12 02:08:00,69.5,66.1,29.94,NNW,329,0.0,0.0,89,0.00,,CLR,0.00,VWS V14.01,2013-07-12 06:08:00,
2013-07-12 02:13:00,69.3,65.6,29.94,NNW,329,0.0,0.0,88,0.00,,CLR,0.00,VWS V14.01,2013-07-12 06:13:00,
2013-07-12 02:18:00,69.1,65.4,29.94,NNW,329,0.0,0.0,88,0.00,,CLR,0.00,VWS V14.01,2013-07-12 06:18:00,
2013-07-12 02:23:00,68.9,65.2,29.94,NNW,329,0.0,0.0,88,0.00,,CLR,0.00,VWS V14.01,2013-07-12 06:23:00,
2013-07-12 02:28:00,68.8,65.1,29.94,NNW,329,0.0,0.0,88,0.00,,CLR,0.00,VWS V14.01,2013-07-12 06:28:00,
2013-07-12 02:33:00,68.8,65.1,29.95,NNW,329,0.0,0.0,88,0.00,,CLR,0.00,VWS V14.01,2013-07-12 06:33:00,
2013-07-12 02:38:00,68.9,65.8,29.95,NNW,329,0.0,0.0,90,0.00,,CLR,0.00,VWS V14.01,2013-07-12 06:38:00,
2013-07-12 02:43:00,69.1,65.7,29.95,NNW,329,0.0,0.0,89,0.00,,CLR,0.00,VWS V14.01,2013-07-12 06:43:00,
2013-07-12 02:48:00,69.1,65.7,29.95,NNW,329,0.0,0.0,89,0.00,,CLR,0.00,VWS V14.01,2013-07-12 06:48:00,
2013-07-12 02:53:00,69.2,65.8,29.95,NNW,329,0.0,0.0,89,0.00,,CLR,0.00,VWS V14.01,2013-07-12 06:53:00,
2013-07-12 02:58:00,69.2,65.8,29.95,NNW,329,0.0,0.0,89,0.00,,CLR,0.00,VWS V14.01,2013-07-12 06:58:00,
2013-07-12 03:03:00,69.2,65.8,29.95,NNW,329,0.0,0.0,89,0.00,,BKN080,0.00,VWS V14.01,2013-07-12 07:03:00,
2013-07-12 03:08:00,69.1,65.4,29.95,NNW,329,0.0,0.0,88,0.00,,BKN080,0.00,VWS V14.01,2013-07-12 07:08:00,
2013-07-12 03:13:00,69.0,65.3,29.95,NNW,329,0.0,0.0,88,0.00,,BKN080,0.00,VWS V14.01,2013-07-12 07:13:00,
2013-07-12 03:18:00,69.0,65.3,29.95,NNW,329,0.0,0.0,88,0.00,,BKN080,0.00,VWS V14.01,2013-07-12 07:18:00,
2013-07-12 03:23:00,69.1,65.4,29.95,NNW,329,0.0,0.0,88,0.00,,BKN080,0.00,VWS V14.01,2013-07-12 07:23:00,
2013-07-12 03:28:00,69.3,65.3,29.95,NNW,329,0.0,0.0,87,0.00,,BKN080,0.00,VWS V14.01,2013-07-12 07:28:00,
2013-07-12 03:33:00,69.5,65.5,29.95,NNW,329,0.0,0.0,87,0.00,,BKN080,0.00,VWS V14.01,2013-07-12 07:33:00,
2013-07-12 03:38:00,69.6,65.6,29.95,NNW,329,0.0,0.0,87,0.00,,BKN080,0.00,VWS V14.01,2013-07-12 07:38:00,
2013-07-12 03:43:00,69.8,65.4,29.96,NNW,329,0.0,0.0,86,0.00,,BKN080,0.00,VWS V14.01,2013-07-12 07:43:00,
2013-07-12 03:48:00,69.9,65.5,29.96,NNW,329,0.0,0.0,86,0.00,,BKN080,0.00,VWS V14.01,2013-07-12 07:48:00,
2013-07-12 03:53:00,70.0,65.6,29.96,NNW,329,0.0,0.0,86,0.00,,BKN080,0.00,VWS V14.01,2013-07-12 07:53:00,
2013-07-12 03:58:00,69.9,65.5,29.95,NNW,329,0.0,0.0,86,0.00,,BKN080,0.00,VWS V14.01,2013-07-12 07:58:00,
2013-07-12 04:03:00,69.8,65.4,29.96,NNW,329,0.0,0.0,86,0.00,,BKN080,0.00,VWS V14.01,2013-07-12 08:03:00,
2013-07-12 04:08:00,69.6,65.2,29.96,NNW,329,0.0,0.0,86,0.00,,BKN080,0.00,VWS V14.01,2013-07-12 08:08:00,
2013-07-12 04:13:00,69.5,65.5,29.96,NNW,329,0.0,0.0,87,0.00,,BKN080,0.00,VWS V14.01,2013-07-12 08:13:00,
2013-07-12 04:18:00,69.4,65.4,29.96,NNW,329,0.0,0.0,87,0.00,,BKN080,0.00,VWS V14.01,2013-07-12 08:18:00,
2013-07-12 04:23:00,69.2,65.2,29.96,NNW,329,0.0,0.0,87,0.00,,BKN080,0.00,VWS V14.01,2013-07-12 08:23:00,
2013-07-12 04:29:00,69.2,65.5,29.96,NNW,329,0.0,0.0,88,0.00,,BKN080,0.00,VWS V14.01,2013-07-12 08:29:00,
2013-07-12 04:34:00,69.1,65.4,29.96,NNW,329,0.0,0.0,88,0.00,,BKN080,0.00,VWS V14.01,2013-07-12 08:34:00,
2013-07-12 04:39:00,69.1,65.4,29.96,NNW,329,0.0,0.0,88,0.00,,BKN080,0.00,VWS V14.01,2013-07-12 08:39:00,
2013-07-12 04:44:00,69.0,65.3,29.96,NNW,329,0.0,0.0,88,0.00,,BKN080,0.00,VWS V14.01,2013-07-12 08:44:00,
2013-07-12 04:49:00,69.1,65.4,29.96,NNW,330,0.0,0.0,88,0.00,,BKN080,0.00,VWS V14.01,2013-07-12 08:49:00,
2013-07-12 04:54:00,69.2,65.2,29.96,NNW,329,0.0,0.0,87,0.00,,BKN080,0.00,VWS V14.01,2013-07-12 08:54:00,
2013-07-12 04:59:00,69.3,65.3,29.96,NNW,340,0.0,0.0,87,0.00,,BKN080,0.00,VWS V14.01,2013-07-12 08:59:00,
2013-07-12 05:04:00,69.4,65.4,29.96,NNW,340,0.0,0.0,87,0.00,,BKN065,0.00,VWS V14.01,2013-07-12 09:04:00,
2013-07-12 05:09:00,69.5,65.5,29.96,NNW,340,0.0,0.0,87,0.00,,BKN065,0.00,VWS V14.01,2013-07-12 09:09:00,
2013-07-12 05:14:00,69.5,65.5,29.97,NNW,340,0.0,0.0,87,0.00,,BKN065,0.00,VWS V14.01,2013-07-12 09:14:00,
2013-07-12 05:19:00,69.5,65.5,29.97,NNW,340,0.0,0.0,87,0.00,,BKN065,0.00,VWS V14.01,2013-07-12 09:19:00,
2013-07-12 05:24:00,69.5,65.5,29.97,NNW,340,0.0,0.0,87,0.00,,BKN065,0.00,VWS V14.01,2013-07-12 09:24:00,
2013-07-12 05:29:00,69.4,65.4,29.97,NNW,337,0.0,0.0,87,0.00,,BKN065,0.00,VWS V14.01,2013-07-12 09:29:00,
2013-07-12 05:34:00,69.4,65.0,29.97,NNW,338,0.0,0.0,86,0.00,,BKN065,0.00,VWS V14.01,2013-07-12 09:34:00,
2013-07-12 05:39:00,69.5,65.1,29.98,NNW,338,0.0,0.0,86,0.00,,BKN065,0.00,VWS V14.01,2013-07-12 09:39:00,
2013-07-12 05:44:00,69.4,65.0,29.98,NNW,338,0.0,0.0,86,0.00,,BKN065,0.00,VWS V14.01,2013-07-12 09:44:00,
2013-07-12 05:49:00,69.3,64.9,29.98,NNW,338,0.0,0.0,86,0.00,,BKN065,0.00,VWS V14.01,2013-07-12 09:49:00,
2013-07-12 05:54:00,69.2,64.8,29.98,NNW,338,0.0,0.0,86,0.00,,BKN065,0.00,VWS V14.01,2013-07-12 09:54:00,
2013-07-12 05:59:00,69.3,64.9,29.98,NNW,338,0.0,0.0,86,0.00,,BKN065,0.00,VWS V14.01,2013-07-12 09:59:00,
2013-07-12 06:04:00,69.2,64.8,29.99,NW,304,0.0,0.0,86,0.00,,BKN090,0.00,VWS V14.01,2013-07-12 10:04:00,
2013-07-12 06:09:00,69.2,64.8,29.99,NW,305,0.0,0.0,86,0.00,,BKN090,0.00,VWS V14.01,2013-07-12 10:09:00,
2013-07-12 06:14:00,69.3,64.6,29.99,NW,308,0.0,0.0,85,0.00,,BKN090,0.00,VWS V14.01,2013-07-12 10:14:00,
2013-07-12 06:19:00,69.5,64.8,29.99,NW,308,0.0,0.0,85,0.00,,BKN090,0.00,VWS V14.01,2013-07-12 10:19:00,
2013-07-12 06:24:00,69.5,64.8,29.99,NW,308,0.0,0.0,85,0.00,,BKN090,0.00,VWS V14.01,2013-07-12 10:24:00,
2013-07-12 06:29:00,69.7,64.7,29.99,NW,308,0.0,0.0,84,0.00,,BKN090,0.00,VWS V14.01,2013-07-12 10:29:00,
2013-07-12 06:34:00,69.9,64.8,29.99,NW,308,0.0,0.0,84,0.00,,BKN090,0.00,VWS V14.01,2013-07-12 10:34:00,
2013-07-12 06:39:00,70.1,65.1,30.00,NW,319,0.0,0.0,84,0.00,,BKN090,0.00,VWS V14.01,2013-07-12 10:39:00,
2013-07-12 06:44:00,70.3,64.9,29.99,NW,319,0.0,0.0,83,0.00,,BKN090,0.00,VWS V14.01,2013-07-12 10:44:00,
2013-07-12 06:49:00,70.4,65.0,29.99,NW,319,0.0,0.0,83,0.00,,BKN090,0.00,VWS V14.01,2013-07-12 10:49:00,
2013-07-12 06:54:00,70.6,65.2,29.99,NNW,333,0.0,0.0,83,0.00,,BKN090,0.00,VWS V14.01,2013-07-12 10:54:00,
2013-07-12 06:59:00,70.9,65.1,29.99,NNW,333,0.0,0.0,82,0.00,,FEW085,0.00,VWS V14.01,2013-07-12 10:59:00,
2013-07-12 07:04:00,71.1,65.3,29.99,NNW,333,0.0,0.0,82,0.00,,FEW085,0.00,VWS V14.01,2013-07-12 11:04:00,
2013-07-12 07:09:00,71.4,65.6,29.99,NNW,333,0.0,0.0,82,0.00,,FEW085,0.00,VWS V14.01,2013-07-12 11:09:00,
2013-07-12 07:14:00,71.6,65.5,29.99,North,9,0.0,0.0,81,0.00,,FEW085,0.00,VWS V14.01,2013-07-12 11:14:00,
2013-07-12 07:19:00,71.8,65.7,30.00,North,355,0.0,0.0,81,0.00,,FEW085,0.00,VWS V14.01,2013-07-12 11:19:00,
2013-07-12 07:25:00,71.9,65.8,30.00,NE,53,0.0,0.0,81,0.00,,FEW085,0.00,VWS V14.01,2013-07-12 11:25:00,
2013-07-12 07:30:00,72.1,65.6,30.00,NW,325,0.0,0.0,80,0.00,,FEW085,0.00,VWS V14.01,2013-07-12 11:30:00,
2013-07-12 07:35:00,72.3,65.4,30.00,NNW,340,0.0,0.0,79,0.00,,FEW085,0.00,VWS V14.01,2013-07-12 11:35:00,
2013-07-12 07:40:00,72.5,65.6,30.00,NE,36,0.0,0.0,79,0.00,,FEW085,0.00,VWS V14.01,2013-07-12 11:40:00,
2013-07-12 07:45:00,72.8,65.9,30.00,NNW,348,0.0,0.0,79,0.00,,FEW085,0.00,VWS V14.01,2013-07-12 11:45:00,
2013-07-12 07:50:00,73.1,65.8,30.00,NW,306,0.0,0.0,78,0.00,,FEW085,0.00,VWS V14.01,2013-07-12 11:50:00,
2013-07-12 07:55:00,73.4,65.8,30.00,NW,321,0.0,0.0,77,0.00,,FEW085,0.00,VWS V14.01,2013-07-12 11:55:00,
2013-07-12 08:00:00,73.8,66.2,30.00,NW,325,0.0,0.0,77,0.00,,CLR,0.00,VWS V14.01,2013-07-12 12:00:00,
2013-07-12 08:05:00,74.1,66.1,30.00,NNE,33,0.0,0.0,76,0.00,,CLR,0.00,VWS V14.01,2013-07-12 12:05:00,
2013-07-12 08:10:00,74.4,66.0,30.00,ENE,76,0.0,0.0,75,0.00,,CLR,0.00,VWS V14.01,2013-07-12 12:10:00,
2013-07-12 08:15:00,74.6,65.8,30.00,ENE,71,0.0,0.0,74,0.00,,CLR,0.00,VWS V14.01,2013-07-12 12:15:00,
2013-07-12 08:20:00,74.6,65.8,30.00,NE,50,0.0,0.0,74,0.00,,CLR,0.00,VWS V14.01,2013-07-12 12:20:00,
2013-07-12 08:25:00,74.7,65.9,30.01,NW,316,0.0,0.0,74,0.00,,CLR,0.00,VWS V14.01,2013-07-12 12:25:00,
2013-07-12 08:30:00,75.1,65.9,30.00,North,350,0.0,0.0,73,0.00,,CLR,0.00,VWS V14.01,2013-07-12 12:30:00,
2013-07-12 08:35:00,75.2,65.6,30.01,NE,44,0.0,0.0,72,0.00,,CLR,0.00,VWS V14.01,2013-07-12 12:35:00,
2013-07-12 08:40:00,75.2,66.0,30.01,NNE,20,0.0,0.0,73,0.00,,CLR,0.00,VWS V14.01,2013-07-12 12:40:00,
2013-07-12 08:45:00,75.1,65.9,30.01,NNW,342,0.0,0.0,73,0.00,,CLR,0.00,VWS V14.01,2013-07-12 12:45:00,
2013-07-12 08:50:00,74.9,65.7,30.01,NE,55,0.0,0.0,73,0.00,,CLR,0.00,VWS V14.01,2013-07-12 12:50:00,
2013-07-12 08:55:00,74.9,65.7,30.01,ENE,59,0.0,0.0,73,0.00,,CLR,0.00,VWS V14.01,2013-07-12 12:55:00,
2013-07-12 09:00:00,75.0,65.8,30.02,NNE,19,0.0,0.0,73,0.00,,BKN080,0.00,VWS V14.01,2013-07-12 13:00:00,
2013-07-12 09:05:00,75.1,65.9,30.02,NE,52,0.0,0.0,73,0.00,,BKN080,0.00,VWS V14.01,2013-07-12 13:05:00,
2013-07-12 09:10:00,75.3,66.1,30.02,NNW,346,0.0,0.0,73,0.00,,BKN080,0.00,VWS V14.01,2013-07-12 13:10:00,
2013-07-12 09:15:00,75.7,66.0,30.02,North,5,0.0,0.0,72,0.00,,BKN080,0.00,VWS V14.01,2013-07-12 13:15:00,
2013-07-12 09:20:00,76.1,66.4,30.02,ENE,71,0.0,0.0,72,0.00,,BKN080,0.00,VWS V14.01,2013-07-12 13:20:00,
2013-07-12 09:25:00,76.6,66.9,30.02,WNW,288,0.0,0.0,72,0.00,,BKN080,0.00,VWS V14.01,2013-07-12 13:25:00,
2013-07-12 09:30:00,76.6,66.1,30.02,NNE,17,0.0,0.0,70,0.00,,BKN080,0.00,VWS V14.01,2013-07-12 13:30:00,
2013-07-12 09:35:00,76.5,66.8,30.02,NNW,340,0.0,0.0,72,0.00,,BKN080,0.00,VWS V14.01,2013-07-12 13:35:00,
2013-07-12 09:40:00,76.4,66.3,30.01,ENE,63,0.0,0.0,71,0.00,,BKN080,0.00,VWS V14.01,2013-07-12 13:40:00,
2013-07-12 09:45:00,76.2,66.5,30.02,NW,323,0.0,0.0,72,0.00,,BKN080,0.00,VWS V14.01,2013-07-12 13:45:00,
2013-07-12 09:50:00,76.3,66.6,30.02,NNE,15,0.0,0.0,72,0.00,,BKN080,0.00,VWS V14.01,2013-07-12 13:50:00,
2013-07-12 09:55:00,76.5,66.8,30.01,NNE,32,0.0,0.0,72,0.00,,BKN080,0.00,VWS V14.01,2013-07-12 13:55:00,
2013-07-12 10:00:00,76.6,66.5,30.02,NNE,24,0.0,0.0,71,0.00,,OVC090,0.00,VWS V14.01,2013-07-12 14:00:00,
2013-07-12 10:05:00,76.7,67.0,30.02,ENE,67,0.0,0.0,72,0.00,,OVC090,0.00,VWS V14.01,2013-07-12 14:05:00,
2013-07-12 10:10:00,76.9,67.2,30.02,NE,34,0.0,0.0,72,0.00,,OVC090,0.00,VWS V14.01,2013-07-12 14:10:00,
2013-07-12 10:15:00,77.2,67.5,30.02,North,350,0.0,0.0,72,0.00,,OVC090,0.00,VWS V14.01,2013-07-12 14:15:00,
2013-07-12 10:20:00,77.4,67.3,30.02,NE,51,0.0,0.0,71,0.00,,OVC090,0.00,VWS V14.01,2013-07-12 14:20:00,
2013-07-12 10:25:00,77.5,67.8,30.02,NNE,15,0.0,0.0,72,0.00,,OVC090,0.00,VWS V14.01,2013-07-12 14:25:00,
2013-07-12 10:30:00,77.7,67.6,30.02,NE,45,0.0,0.0,71,0.00,,OVC090,0.00,VWS V14.01,2013-07-12 14:30:00,
2013-07-12 10:35:00,77.9,67.8,30.02,NE,40,0.0,0.0,71,0.00,,OVC090,0.00,VWS V14.01,2013-07-12 14:35:00,
2013-07-12 10:41:00,78.3,68.1,30.02,NNE,19,0.0,0.0,71,0.00,,OVC090,0.00,VWS V14.01,2013-07-12 14:41:00,
2013-07-12 10:46:00,78.6,68.0,30.02,NNW,338,0.0,0.0,70,0.00,,OVC090,0.00,VWS V14.01,2013-07-12 14:46:00,
2013-07-12 10:51:00,78.9,68.3,30.02,NE,53,0.0,0.0,70,0.00,,OVC090,0.00,VWS V14.01,2013-07-12 14:51:00,
2013-07-12 10:56:00,79.2,69.0,30.02,NE,48,0.0,0.0,71,0.00,,OVC090,0.00,VWS V14.01,2013-07-12 14:56:00,
2013-07-12 11:01:00,79.4,67.9,30.02,North,9,0.0,0.0,68,0.00,,CLR,0.00,VWS V14.01,2013-07-12 15:01:00,
2013-07-12 11:06:00,79.3,68.7,30.02,ENE,63,0.0,0.0,70,0.00,,CLR,0.00,VWS V14.01,2013-07-12 15:06:00,
2013-07-12 11:11:00,79.2,68.6,30.03,North,11,0.0,0.0,70,0.00,,CLR,0.00,VWS V14.01,2013-07-12 15:11:00,
2013-07-12 11:16:00,79.4,69.2,30.03,North,350,0.0,0.0,71,0.00,,CLR,0.00,VWS V14.01,2013-07-12 15:16:00,
2013-07-12 11:21:00,79.5,68.4,30.03,North,10,0.0,0.0,69,0.00,,CLR,0.00,VWS V14.01,2013-07-12 15:21:00,
2013-07-12 11:26:00,79.4,69.2,30.03,ENE,58,0.0,0.0,71,0.00,,CLR,0.00,VWS V14.01,2013-07-12 15:26:00,
2013-07-12 11:31:00,79.1,68.1,30.03,ENE,66,0.0,0.0,69,0.00,,CLR,0.00,VWS V14.01,2013-07-12 15:31:00,
2013-07-12 11:36:00,78.8,67.8,30.03,ENE,69,0.0,0.0,69,0.00,,CLR,0.00,VWS V14.01,2013-07-12 15:36:00,
2013-07-12 11:41:00,78.6,68.0,30.03,ENE,57,0.0,0.0,70,0.00,,CLR,0.00,VWS V14.01,2013-07-12 15:41:00,
2013-07-12 11:46:00,78.4,68.2,30.03,ENE,63,0.0,0.0,71,0.00,,CLR,0.00,VWS V14.01,2013-07-12 15:46:00,
2013-07-12 11:51:00,78.3,68.5,30.03,ENE,78,0.0,0.0,72,0.00,,CLR,0.00,VWS V14.01,2013-07-12 15:51:00,
2013-07-12 11:56:00,78.1,68.3,30.03,ENE,57,0.0,0.0,72,0.00,,CLR,0.00,VWS V14.01,2013-07-12 15:56:00,
2013-07-12 12:01:00,78.2,68.8,30.03,NE,48,0.0,0.0,73,0.00,,FEW029,0.00,VWS V14.01,2013-07-12 16:01:00,
2013-07-12 12:06:00,78.4,68.6,30.03,ENE,69,0.0,0.0,72,0.00,,FEW029,0.00,VWS V14.01,2013-07-12 16:06:00,
2013-07-12 12:11:00,78.4,68.6,30.03,NW,315,0.0,0.0,72,0.00,,FEW029,0.00,VWS V14.01,2013-07-12 16:11:00,
2013-07-12 12:16:00,78.5,68.7,30.03,SSW,192,0.0,0.0,72,0.00,,FEW029,0.00,VWS V14.01,2013-07-12 16:16:00,
2013-07-12 12:21:00,78.6,68.8,30.03,NNW,336,0.0,0.0,72,0.00,,FEW029,0.00,VWS V14.01,2013-07-12 16:21:00,
2013-07-12 12:26:00,78.9,69.1,30.03,NE,40,0.0,0.0,72,0.00,,FEW029,0.00,VWS V14.01,2013-07-12 16:26:00,
2013-07-12 12:31:00,79.1,68.5,30.03,ENE,63,0.0,0.0,70,0.00,,FEW029,0.00,VWS V14.01,2013-07-12 16:31:00,
2013-07-12 12:36:00,79.2,68.6,30.03,NNE,15,0.0,0.0,70,0.00,,FEW029,0.00,VWS V14.01,2013-07-12 16:36:00,
2013-07-12 12:41:00,79.4,69.2,30.03,NNE,28,0.0,0.0,71,0.00,,FEW029,0.00,VWS V14.01,2013-07-12 16:41:00,
2013-07-12 12:46:00,79.2,69.0,30.03,ENE,59,0.0,0.0,71,0.00,,FEW029,0.00,VWS V14.01,2013-07-12 16:46:00,
2013-07-12 12:51:00,79.1,68.9,30.03,NE,51,0.0,0.0,71,0.00,,FEW029,0.00,VWS V14.01,2013-07-12 16:51:00,
2013-07-12 12:56:00,79.1,68.9,30.04,NNE,20,0.0,0.0,71,0.00,,FEW029,0.00,VWS V14.01,2013-07-12 16:56:00,
2013-07-12 13:01:00,78.8,69.0,30.03,North,5,0.0,0.0,72,0.00,,OVC031,0.00,VWS V14.01,2013-07-12 17:01:00,
2013-07-12 13:06:00,78.5,68.7,30.03,North,355,0.0,0.0,72,0.00,,OVC031,0.00,VWS V14.01,2013-07-12 17:06:00,
2013-07-12 13:12:00,78.3,69.7,30.03,NE,35,0.0,0.0,75,0.00,,OVC031,0.00,VWS V14.01,2013-07-12 17:12:00,
2013-07-12 13:17:00,78.3,69.3,30.03,NE,53,0.0,0.0,74,0.00,,OVC031,0.00,VWS V14.01,2013-07-12 17:17:00,
2013-07-12 13:22:00,78.3,69.3,30.03,NE,43,0.0,0.0,74,0.00,,OVC031,0.00,VWS V14.01,2013-07-12 17:22:00,
2013-07-12 13:27:00,78.1,69.5,30.03,NNE,29,0.0,0.0,75,0.00,,OVC031,0.00,VWS V14.01,2013-07-12 17:27:00,
2013-07-12 13:32:00,78.0,69.4,30.04,North,360,0.0,0.0,75,0.00,,OVC031,0.00,VWS V14.01,2013-07-12 17:32:00,
2013-07-12 13:37:00,78.0,69.8,30.04,NE,51,0.0,0.0,76,0.00,,OVC031,0.00,VWS V14.01,2013-07-12 17:37:00,
2013-07-12 13:42:00,77.9,69.7,30.04,ENE,59,0.0,0.0,76,0.00,,OVC031,0.00,VWS V14.01,2013-07-12 17:42:00,
2013-07-12 13:47:00,77.6,69.1,30.04,ENE,67,0.0,0.0,75,0.00,,OVC031,0.00,VWS V14.01,2013-07-12 17:47:00,
2013-07-12 13:52:00,77.4,69.2,30.04,NNW,342,0.0,0.0,76,0.00,,OVC031,0.00,VWS V14.01,2013-07-12 17:52:00,
2013-07-12 13:57:00,77.3,69.5,30.04,ENE,63,0.0,0.0,77,0.00,,OVC031,0.00,VWS V14.01,2013-07-12 17:57:00,
2013-07-12 14:02:00,77.3,69.2,30.04,NE,43,0.0,0.0,76,0.00,,OVC033,0.00,VWS V14.01,2013-07-12 18:02:00,
2013-07-12 14:07:00,77.4,69.2,30.04,NNE,28,0.0,0.0,76,0.00,,OVC033,0.00,VWS V14.01,2013-07-12 18:07:00,
2013-07-12 14:13:00,77.6,69.8,30.04,NNE,26,0.0,0.0,77,0.00,,OVC033,0.00,VWS V14.01,2013-07-12 18:13:00,
2013-07-12 14:18:00,77.6,69.8,30.04,ENE,67,0.0,0.0,77,0.00,,OVC033,0.00,VWS V14.01,2013-07-12 18:18:00,
2013-07-12 14:23:00,77.5,70.5,30.03,NE,46,0.0,0.0,79,0.00,,OVC033,0.00,VWS V14.01,2013-07-12 18:23:00,
2013-07-12 14:28:00,77.3,70.3,30.03,NE,40,0.0,0.0,79,0.00,,OVC033,0.00,VWS V14.01,2013-07-12 18:28:00,
2013-07-12 14:33:00,77.1,70.5,30.03,NNW,338,0.0,0.0,80,0.00,,OVC033,0.00,VWS V14.01,2013-07-12 18:33:00,
2013-07-12 14:38:00,76.8,70.9,30.03,ENE,59,0.0,0.0,82,0.00,,OVC033,0.00,VWS V14.01,2013-07-12 18:38:00,
2013-07-12 14:43:00,76.7,70.8,30.03,NNE,30,0.0,0.0,82,0.00,,OVC033,0.00,VWS V14.01,2013-07-12 18:43:00,
2013-07-12 14:48:00,76.5,70.6,30.03,NNE,13,0.0,0.0,82,0.00,,-RA,0.00,VWS V14.01,2013-07-12 18:48:00,
2013-07-12 14:53:00,76.4,70.5,30.03,North,5,0.0,0.0,82,0.00,,-RA,0.00,VWS V14.01,2013-07-12 18:53:00,
2013-07-12 14:58:00,76.3,70.8,30.03,ENE,74,0.0,0.0,83,0.00,,-RA,0.00,VWS V14.01,2013-07-12 18:58:00,
2013-07-12 15:03:00,76.2,70.7,30.03,North,5,0.0,0.0,83,0.00,,-RA,0.00,VWS V14.01,2013-07-12 19:03:00,
2013-07-12 15:08:00,76.0,70.1,30.03,ENE,60,0.0,0.0,82,0.00,,-RA,0.00,VWS V14.01,2013-07-12 19:08:00,
2013-07-12 15:13:00,75.8,70.3,30.03,NE,49,0.0,0.0,83,0.00,,-RA,0.00,VWS V14.01,2013-07-12 19:13:00,
2013-07-12 15:18:00,75.5,70.0,30.03,NE,52,0.0,0.0,83,0.00,,-RA,0.00,VWS V14.01,2013-07-12 19:18:00,
2013-07-12 15:23:00,75.3,69.8,30.03,NE,53,0.0,0.0,83,0.00,,-RA,0.00,VWS V14.01,2013-07-12 19:23:00,
2013-07-12 15:29:00,75.1,69.2,30.03,NE,53,0.0,0.0,82,0.00,,-RA,0.00,VWS V14.01,2013-07-12 19:29:00,
2013-07-12 15:34:00,74.9,69.4,30.03,ENE,58,0.0,0.0,83,0.00,,-RA,0.00,VWS V14.01,2013-07-12 19:34:00,
2013-07-12 15:39:00,74.9,69.4,30.03,ENE,65,0.0,0.0,83,0.00,,-RA,0.00,VWS V14.01,2013-07-12 19:39:00,
2013-07-12 15:44:00,74.9,69.4,30.03,NNE,13,0.0,0.0,83,0.00,,-RA,0.00,VWS V14.01,2013-07-12 19:44:00,
2013-07-12 15:49:00,75.0,69.5,30.03,NE,51,0.0,0.0,83,0.00,,-RA,0.00,VWS V14.01,2013-07-12 19:49:00,
2013-07-12 15:54:00,75.0,69.5,30.03,East,99,0.0,0.0,83,0.00,,-RA,0.00,VWS V14.01,2013-07-12 19:54:00,
2013-07-12 15:59:00,75.0,69.1,30.03,NW,304,0.0,0.0,82,0.00,,-RA,0.00,VWS V14.01,2013-07-12 19:59:00,
2013-07-12 16:04:00,75.0,69.1,30.02,ENE,64,0.0,0.0,82,0.00,,-RA,0.00,VWS V14.01,2013-07-12 20:04:00,
2013-07-12 16:09:00,75.0,69.1,30.03,NE,48,4.0,5.0,82,0.00,,-RA,0.00,VWS V14.01,2013-07-12 20:09:00,
2013-07-12 16:14:00,75.0,69.1,30.03,NE,36,0.0,9.0,82,0.00,,-RA,0.00,VWS V14.01,2013-07-12 20:14:00,
2013-07-12 16:19:00,74.9,69.4,30.03,NE,53,6.0,9.0,83,0.00,,-RA,0.00,VWS V14.01,2013-07-12 20:19:00,
2013-07-12 16:24:00,74.8,69.7,30.03,NE,41,0.0,9.0,84,0.00,,-RA,0.00,VWS V14.01,2013-07-12 20:24:00,
2013-07-12 16:30:00,74.4,69.6,30.03,NE,46,0.0,0.0,85,0.01,,-RA,0.01,VWS V14.01,2013-07-12 20:30:00,
2013-07-12 16:35:00,74.0,69.6,30.03,NE,51,4.0,6.0,86,0.02,,-RA,0.02,VWS V14.01,2013-07-12 20:35:00,
2013-07-12 16:40:00,73.6,69.2,30.04,ENE,61,1.0,10.0,86,0.02,,-RA,0.02,VWS V14.01,2013-07-12 20:40:00,
2013-07-12 16:45:00,73.2,69.4,30.04,ENE,73,0.0,10.0,88,0.03,,-RA,0.03,VWS V14.01,2013-07-12 20:45:00,
2013-07-12 16:50:00,73.0,69.9,30.04,NE,43,0.0,10.0,90,0.04,,-RA,0.04,VWS V14.01,2013-07-12 20:50:00,
2013-07-12 16:55:00,72.8,69.7,30.04,ENE,72,0.0,10.0,90,0.06,,-RA,0.06,VWS V14.01,2013-07-12 20:55:00,
2013-07-12 17:00:00,72.5,69.7,30.04,NE,36,0.0,0.0,91,0.07,,-RA,0.07,VWS V14.01,2013-07-12 21:00:00,
2013-07-12 17:05:00,72.3,69.8,30.04,NE,56,1.0,6.0,92,0.09,,-RA,0.09,VWS V14.01,2013-07-12 21:05:00,
2013-07-12 17:10:00,72.2,69.8,30.04,NE,56,1.0,6.0,92,0.12,,-RA,0.12,VWS V14.01,2013-07-12 21:10:00,
2013-07-12 17:15:00,72.0,69.6,30.04,ENE,67,0.0,8.0,92,0.14,,-RA,0.14,VWS V14.01,2013-07-12 21:15:00,
2013-07-12 17:21:00,71.9,69.4,30.04,NE,50,2.0,8.0,92,0.16,,-RA,0.16,VWS V14.01,2013-07-12 21:21:00,
2013-07-12 17:26:00,71.7,69.6,30.04,ENE,69,0.0,8.0,93,0.18,,-RA,0.18,VWS V14.01,2013-07-12 21:26:00,
2013-07-12 17:31:00,71.7,69.6,30.04,NNW,346,1.0,4.0,93,0.19,,-RA,0.20,VWS V14.01,2013-07-12 21:31:00,
2013-07-12 17:36:00,71.6,69.8,30.04,NE,38,1.0,4.0,94,0.22,,-RA,0.23,VWS V14.01,2013-07-12 21:36:00,
2013-07-12 17:41:00,71.6,69.8,30.04,ENE,65,0.0,6.0,94,0.25,,-RA,0.26,VWS V14.01,2013-07-12 21:41:00,
2013-07-12 17:46:00,71.5,69.7,30.04,NE,47,0.0,6.0,94,0.28,,-RA,0.29,VWS V14.01,2013-07-12 21:46:00,
2013-07-12 17:51:00,71.4,69.6,30.04,ENE,58,1.0,6.0,94,0.36,,-RA,0.37,VWS V14.01,2013-07-12 21:51:00,
2013-07-12 17:56:00,71.3,69.8,30.04,ENE,61,0.0,6.0,95,0.48,,-RA,0.49,VWS V14.01,2013-07-12 21:56:00,
2013-07-12 18:01:00,71.2,69.7,30.04,North,355,0.0,4.0,95,0.50,,-RA,0.57,VWS V14.01,2013-07-12 22:01:00,
2013-07-12 18:06:00,71.2,69.7,30.05,ENE,71,2.0,4.0,95,0.58,,-RA,0.65,VWS V14.01,2013-07-12 22:06:00,
2013-07-12 18:11:00,71.2,69.7,30.04,North,360,3.0,4.0,95,0.67,,-RA,0.74,VWS V14.01,2013-07-12 22:11:00,
2013-07-12 18:16:00,71.1,69.6,30.04,ENE,74,0.0,4.0,95,0.74,,-RA,0.81,VWS V14.01,2013-07-12 22:16:00,
2013-07-12 18:21:00,71.1,69.9,30.04,ENE,69,2.0,5.0,96,0.81,,-RA,0.88,VWS V14.01,2013-07-12 22:21:00,
2013-07-12 18:26:00,71.0,69.8,30.05,NE,56,2.0,8.0,96,0.89,,-RA,0.96,VWS V14.01,2013-07-12 22:26:00,
2013-07-12 18:31:00,71.0,69.8,30.04,SSE,150,0.0,1.0,96,0.80,,-RA,1.00,VWS V14.01,2013-07-12 22:31:00,
2013-07-12 18:36:00,70.9,69.7,30.04,NE,53,3.0,6.0,96,0.84,,-RA,1.04,VWS V14.01,2013-07-12 22:36:00,
2013-07-12 18:41:00,70.8,69.6,30.04,East,86,7.0,9.0,96,0.88,,-RA,1.08,VWS V14.01,2013-07-12 22:41:00,
2013-07-12 18:46:00,70.6,69.1,30.05,ENE,61,3.0,9.0,95,0.89,,-RA,1.09,VWS V14.01,2013-07-12 22:46:00,
2013-07-12 18:51:00,70.6,69.4,30.04,ENE,63,0.0,9.0,96,0.89,,-RA,1.09,VWS V14.01,2013-07-12 22:51:00,
2013-07-12 18:56:00,70.6,69.4,30.04,NNE,26,2.0,9.0,96,0.89,,RA,1.09,VWS V14.01,2013-07-12 22:56:00,
2013-07-12 19:01:00,70.5,69.3,30.04,SSW,208,1.0,3.0,96,0.55,,RA,1.09,VWS V14.01,2013-07-12 23:01:00,
2013-07-12 19:07:00,70.5,69.3,30.05,South,182,3.0,11.0,96,0.56,,RA,1.10,VWS V14.01,2013-07-12 23:07:00,
2013-07-12 19:12:00,70.4,68.9,30.05,East,86,7.0,11.0,95,0.56,,RA,1.10,VWS V14.01,2013-07-12 23:12:00,
2013-07-12 19:17:00,70.4,68.9,30.05,NNW,337,2.0,11.0,95,0.56,,-RA,1.10,VWS V14.01,2013-07-12 23:17:00,
2013-07-12 19:22:00,70.3,68.8,30.05,NE,44,5.0,11.0,95,0.56,,-RA,1.10,VWS V14.01,2013-07-12 23:22:00,
2013-07-12 19:27:00,70.3,68.8,30.05,ENE,61,2.0,11.0,95,0.56,,-RA,1.10,VWS V14.01,2013-07-12 23:27:00,
2013-07-12 19:33:00,70.3,69.1,30.05,NNE,18,2.0,5.0,96,0.12,,-RA,1.11,VWS V14.01,2013-07-12 23:33:00,
2013-07-12 19:38:00,70.4,68.9,30.05,ENE,57,2.0,11.0,95,0.12,,-RA,1.11,VWS V14.01,2013-07-12 23:38:00,
2013-07-12 19:43:00,70.3,68.8,30.05,NNE,32,1.0,11.0,95,0.12,,-RA,1.11,VWS V14.01,2013-07-12 23:43:00,
2013-07-12 19:48:00,70.2,68.7,30.04,NE,34,4.0,11.0,95,0.12,,-RA,1.11,VWS V14.01,2013-07-12 23:48:00,
2013-07-12 19:53:00,70.3,69.1,30.05,NE,54,3.0,11.0,96,0.12,,-RA,1.11,VWS V14.01,2013-07-12 23:53:00,
2013-07-12 19:58:00,70.2,68.7,30.05,ENE,62,3.0,12.0,95,0.12,,-RA,1.11,VWS V14.01,2013-07-12 23:58:00,
2013-07-12 20:03:00,70.2,68.7,30.05,NE,38,1.0,9.0,95,0.03,,-RA,1.12,VWS V14.01,2013-07-13 00:03:00,
2013-07-12 20:08:00,70.2,68.7,30.05,ENE,71,1.0,14.0,95,0.03,,-RA,1.12,VWS V14.01,2013-07-13 00:08:00,
2013-07-12 20:13:00,70.2,68.7,30.05,NNW,343,3.0,14.0,95,0.03,,-RA,1.12,VWS V14.01,2013-07-13 00:13:00,
2013-07-12 20:18:00,70.2,68.7,30.05,ENE,63,2.0,14.0,95,0.03,,-RA,1.12,VWS V14.01,2013-07-13 00:18:00,
2013-07-12 20:23:00,70.1,68.6,30.05,NE,49,4.0,14.0,95,0.03,,-RA,1.12,VWS V14.01,2013-07-13 00:23:00,
2013-07-12 20:29:00,70.0,68.5,30.05,NE,44,4.0,14.0,95,0.03,,-RA,1.12,VWS V14.01,2013-07-13 00:29:00,
2013-07-12 20:34:00,70.0,68.5,30.05,ENE,68,7.0,7.0,95,0.02,,-RA,1.12,VWS V14.01,2013-07-13 00:34:00,
2013-07-12 20:39:00,70.0,68.5,30.05,ENE,63,4.0,11.0,95,0.02,,-RA,1.12,VWS V14.01,2013-07-13 00:39:00,
2013-07-12 20:44:00,70.0,68.5,30.05,NE,38,0.0,11.0,95,0.02,,-RA,1.12,VWS V14.01,2013-07-13 00:44:00,
2013-07-12 20:50:00,69.9,68.4,30.06,NE,53,3.0,12.0,95,0.02,,-RA,1.12,VWS V14.01,2013-07-13 00:50:00,
2013-07-12 20:55:00,69.9,68.4,30.06,NNE,14,4.0,13.0,95,0.02,,-RA,1.12,VWS V14.01,2013-07-13 00:55:00,
2013-07-12 21:00:00,69.9,68.4,30.06,NE,45,6.0,6.0,95,0.00,,-RA,1.12,VWS V14.01,2013-07-13 01:00:00,
2013-07-12 21:05:00,69.9,68.4,30.06,ENE,57,3.0,9.0,95,0.00,,-RA,1.12,VWS V14.01,2013-07-13 01:05:00,
2013-07-12 21:10:00,69.9,68.4,30.06,ENE,74,0.0,15.0,95,0.00,,-RA,1.12,VWS V14.01,2013-07-13 01:10:00,
2013-07-12 21:15:00,69.8,68.3,30.06,SE,138,2.0,15.0,95,0.00,,-RA,1.12,VWS V14.01,2013-07-13 01:15:00,
2013-07-12 21:20:00,69.9,68.4,30.06,ENE,61,7.0,15.0,95,0.00,,-RA,1.12,VWS V14.01,2013-07-13 01:20:00,
2013-07-12 21:25:00,69.9,68.4,30.06,NNW,327,3.0,15.0,95,0.00,,-RA,1.12,VWS V14.01,2013-07-13 01:25:00,
2013-07-12 21:31:00,69.8,68.3,30.07,NE,48,2.0,4.0,95,0.00,,-RA,1.12,VWS V14.01,2013-07-13 01:31:00,
2013-07-12 21:36:00,69.8,68.3,30.07,NNE,15,6.0,11.0,95,0.00,,-RA,1.12,VWS V14.01,2013-07-13 01:36:00,
2013-07-12 21:41:00,69.8,68.3,30.07,SSE,153,1.0,12.0,95,0.00,,-RA,1.12,VWS V14.01,2013-07-13 01:41:00,
2013-07-12 21:46:00,69.8,68.3,30.07,NE,38,7.0,12.0,95,0.00,,-RA,1.12,VWS V14.01,2013-07-13 01:46:00,
2013-07-12 21:51:00,69.8,68.3,30.07,NE,46,5.0,15.0,95,0.00,,-RA,1.12,VWS V14.01,2013-07-13 01:51:00,
2013-07-12 21:56:00,69.8,68.3,30.07,East,79,5.0,15.0,95,0.00,,OVC036,1.12,VWS V14.01,2013-07-13 01:56:00,
2013-07-12 22:01:00,69.8,68.3,30.07,NE,55,5.0,16.0,95,0.00,,OVC036,1.12,VWS V14.01,2013-07-13 02:01:00,
2013-07-12 22:06:00,69.7,68.2,30.07,East,87,3.0,16.0,95,0.00,,OVC036,1.12,VWS V14.01,2013-07-13 02:06:00,
2013-07-12 22:11:00,69.7,68.2,30.07,ENE,77,0.0,16.0,95,0.00,,-RA,1.12,VWS V14.01,2013-07-13 02:11:00,
2013-07-12 22:16:00,69.7,68.5,30.07,SSE,160,1.0,16.0,96,0.01,,-RA,1.13,VWS V14.01,2013-07-13 02:16:00,
2013-07-12 22:22:00,69.7,68.2,30.07,SE,136,2.0,16.0,95,0.01,,-RA,1.13,VWS V14.01,2013-07-13 02:22:00,
2013-07-12 22:27:00,69.7,68.2,30.07,ENE,57,1.0,16.0,95,0.01,,-RA,1.13,VWS V14.01,2013-07-13 02:27:00,
2013-07-12 22:32:00,69.6,68.1,30.07,ENE,67,2.0,8.0,95,0.01,,-RA,1.13,VWS V14.01,2013-07-13 02:32:00,
2013-07-12 22:37:00,69.6,68.4,30.07,ENE,64,0.0,9.0,96,0.01,,-RA,1.13,VWS V14.01,2013-07-13 02:37:00,
2013-07-12 22:42:00,69.6,68.4,30.08,East,88,0.0,9.0,96,0.01,,-RA,1.13,VWS V14.01,2013-07-13 02:42:00,
2013-07-12 22:47:00,69.7,68.5,30.08,North,5,1.0,9.0,96,0.01,,-RA,1.13,VWS V14.01,2013-07-13 02:47:00,
2013-07-12 22:52:00,69.7,68.5,30.08,ENE,59,1.0,9.0,96,0.01,,-RA,1.13,VWS V14.01,2013-07-13 02:52:00,
2013-07-12 22:58:00,69.6,68.4,30.08,NE,37,0.0,13.0,96,0.01,,-RA,1.13,VWS V14.01,2013-07-13 02:58:00,
2013-07-12 23:03:00,69.7,68.5,30.08,NE,50,1.0,5.0,96,0.01,,OVC020,1.13,VWS V14.01,2013-07-13 03:03:00,
2013-07-12 23:08:00,69.7,68.5,30.08,NNE,13,6.0,6.0,96,0.01,,OVC020,1.13,VWS V14.01,2013-07-13 03:08:00,
2013-07-12 23:13:00,69.6,68.1,30.08,ENE,61,12.0,12.0,95,0.01,,OVC020,1.13,VWS V14.01,2013-07-13 03:13:00,
2013-07-12 23:18:00,69.5,68.0,30.08,ENE,59,0.0,12.0,95,0.01,,OVC020,1.13,VWS V14.01,2013-07-13 03:18:00,
2013-07-12 23:23:00,69.5,68.3,30.08,ENE,69,1.0,12.0,96,0.01,,OVC020,1.13,VWS V14.01,2013-07-13 03:23:00,
2013-07-12 23:28:00,69.5,68.3,30.08,SSW,194,1.0,12.0,96,0.01,,OVC016,1.13,VWS V14.01,2013-07-13 03:28:00,
2013-07-12 23:33:00,69.5,68.3,30.08,ENE,58,3.0,12.0,96,0.00,,OVC016,1.13,VWS V14.01,2013-07-13 03:33:00,
2013-07-12 23:38:00,69.4,68.2,30.08,SE,136,1.0,12.0,96,0.00,,OVC016,1.13,VWS V14.01,2013-07-13 03:38:00,
2013-07-12 23:43:00,69.4,68.2,30.08,ENE,70,1.0,12.0,96,0.00,,OVC016,1.13,VWS V14.01,2013-07-13 03:43:00,
2013-07-12 23:49:00,69.5,68.3,30.08,ENE,61,0.0,12.0,96,0.00,,OVC016,1.13,VWS V14.01,2013-07-13 03:49:00,
2013-07-12 23:54:00,69.4,68.2,30.08,ENE,61,4.0,13.0,96,0.00,,OVC016,1.13,VWS V14.01,2013-07-13 03:54:00,
2013-07-12 23:59:00,69.4,68.2,30.08,North,360,6.0,13.0,96,0.00,,OVC016,1.13,VWS V14.01,2013-07-13 03:59:00,